Dewpoint
63 63 63 63 63 63 63 64 64 65 65 65 64 64 64 62 62 61 61 60 60 59
63 63 63 63 63 63 63 64 64 65 65 64 65 65 64 64 63 62 61 61 60 60
62 63 63 63 62 63 64 64 64 65 65 64 64 65 65 65 64 63 63 62 62 61
61 63 64 64 64 65 64 65 64 65 65 65 64 65 65 65 65 65 64 64 63 63
54 54 55 57 63 66 66 66 66 65 65 65 65 65 65 65 65 65 65 64 64 63
58 59 58 58 59 61 65 67 66 66 66 66 66 66 65 65 65 65 65 65 65 65
52 56 58 60 60 60 60 64 66 66 66 66 66 67 67 66 66 66 66 66 65 65
51 52 54 55 58 60 61 61 61 64 65 66 66 66 67 67 66 66 66 65 65 65
47 48 50 53 56 59 61 62 62 62 63 64 65 56 51 60 66 66 66 65 65 65
45 46 48 51 54 56 58 60 60 60 61 62 63 52 49 49 65 66 65 65 65 63
44 46 46 47 49 52 56 57 59 60 60 60 61 49 46 45 59 65 65 65 65 64
42 42 42 43 45 49 53 54 56 58 58 59 59 48 45 44 55 60 63 64 61 61
39 42 42 43 44 48 52 53 54 55 55 52 56 49 44 45 52 56 52 45 49 46
37 38 40 43 45 48 49 50 51 52 54 54 52 52 44 42 48 53 46 43 41 40
Lifted_Index
-2 -2 -2 -2 -2 -2 -2 -2 -2 -2 -2 -2 -2 -1 -1 -1 -1 -1 -1 -1 -0 -0
-3 -3 -2 -2 -2 -2 -2 -2 -2 -2 -2 -2 -2 -2 -2 -1 -1 -1 -1 -1 -1 -1
-4 -3 -3 -2 -2 -2 -3 -3 -3 -3 -2 -2 -2 -2 -2 -2 -2 -2 -2 -2 -2 -2
-5 -4 -3 -2 -3 -3 -4 -4 -4 -4 -3 -3 -3 -3 -3 -3 -3 -3 -3 -3 -2 -2
-5 -4 -3 -3 -3 -3 -4 -4 -4 -4 -4 -4 -4 -4 -4 -4 -4 -4 -4 -4 -3 -3
-3 -3 -3 -3 -3 -3 -3 -3 -4 -4 -5 -5 -5 -5 -5 -5 -5 -5 -5 -5 -5 -4
-0 -1 -1 -2 -2 -2 -2 -3 -3 -4 -4 -5 -5 -5 -5 -5 -5 -5 -5 -5 -5 -5
2 2 2 1 -0 -1 -2 -3 -3 -3 -4 -4 -4 -5 -5 -5 -5 -5 -5 -5 -5 -5
4 4 3 3 2 0 -1 -2 -3 -3 -3 -3 -3 -4 -4 -5 -5 -5 -5 -5 -5 -6
5 5 4 4 3 2 1 -1 -2 -3 -3 -3 -3 -3 -4 -5 -5 -6 -6 -6 -6 -6
5 5 5 5 5 4 3 1 -0 -1 -2 -2 -3 -3 -4 -4 -5 -5 -6 -6 -6 -6
5 5 5 5 5 5 3 3 2 0 -1 -2 -2 -2 -3 -3 -4 -4 -5 -5 -5 -5
6 6 5 5 5 5 4 3 2 2 1 -0 -1 -1 -1 -1 -2 -3 -4 -4 -4 -4
6 6 6 6 5 5 4 3 2 2 2 1 0 -0 0 -0 -1 -2 -3 -3 -4 -4